Weather reports worldwide

Advertisment
Belgrad, Serbia (13274): temperature & dewpoint: 11.08.2018 01:00:00 - 17.08.2018 01:00:00 (CEST)Belgrad, Serbia (13274): wind speed: 11.08.2018 01:00:00 - 17.08.2018 01:00:00 (CEST)Belgrad, Serbia (13274): wind direction: 11.08.2018 01:00:00 - 17.08.2018 01:00:00 (CEST)Belgrad, Serbia (13274): reduced air pressure: 11.08.2018 01:00:00 - 17.08.2018 01:00:00 (CEST)Belgrad, Serbia (13274): visibility: 11.08.2018 01:00:00 - 17.08.2018 01:00:00 (CEST)
Date & Time tt [°C] td [°C] ff [km/h] ff [kn] dd ppp [hPa] vv [km]
17.08.2018 01:00:00 - - - - - - -
17.08.2018 00:00:00 - - - - - - -
16.08.2018 23:00:00 24,4 16,6 4 2 ESE 1014,8 30
16.08.2018 22:00:00 - - - - - - -
16.08.2018 21:00:00 - - - - - - -
16.08.2018 20:00:00 - - - - - - -
16.08.2018 19:00:00 - - - - - - -
16.08.2018 18:00:00 - - - - - - -
16.08.2018 17:00:00 30,6 15,8 7 4 NNW 1013,4 30
16.08.2018 16:00:00 - - - - - - -
16.08.2018 15:00:00 - - - - - - -
16.08.2018 14:00:00 28,7 19,0 7 4 NNW 1014,7 20
16.08.2018 13:00:00 - - - - - - -
16.08.2018 12:00:00 - - - - - - -
16.08.2018 11:00:00 25,7 18,8 4 2 WSW 1015,8 15
16.08.2018 10:00:00 - - - - - - -
16.08.2018 09:00:00 - - - - - - -
16.08.2018 08:00:00 20,6 18,2 7 4 W 1015,9 10
16.08.2018 07:00:00 - - - - - - -
16.08.2018 06:00:00 - - - - - - -
16.08.2018 05:00:00 19,3 17,6 4 2 W 1015,5 20
16.08.2018 04:00:00 - - - - - - -
16.08.2018 03:00:00 - - - - - - -
16.08.2018 02:00:00 21,5 18,3 4 2 NW 1015,1 20
16.08.2018 01:00:00 - - - - - - -
16.08.2018 00:00:00 - - - - - - -
15.08.2018 23:00:00 22,5 19,4 4 2 W 1015,0 20
15.08.2018 22:00:00 - - - - - - -
15.08.2018 21:00:00 - - - - - - -
15.08.2018 20:00:00 21,8 18,8 4 2 SSW 1014,6 20
15.08.2018 19:00:00 - - - - - - -
15.08.2018 18:00:00 - - - - - - -
15.08.2018 17:00:00 28,9 17,0 4 2 NW 1013,3 30
15.08.2018 16:00:00 - - - - - - -
15.08.2018 15:00:00 - - - - - - -
15.08.2018 14:00:00 27,6 18,4 7 4 WSW 1014,7 30
15.08.2018 13:00:00 - - - - - - -
15.08.2018 12:00:00 - - - - - - -
15.08.2018 11:00:00 23,1 18,2 7 4 WSW 1015,7 20
15.08.2018 10:00:00 - - - - - - -
15.08.2018 09:00:00 - - - - - - -
15.08.2018 08:00:00 19,4 17,7 7 4 W 1015,1 10
15.08.2018 07:00:00 - - - - - - -
15.08.2018 06:00:00 - - - - - - -
15.08.2018 05:00:00 19,6 17,5 7 4 W 1014,1 30
15.08.2018 04:00:00 - - - - - - -
15.08.2018 03:00:00 - - - - - - -
15.08.2018 02:00:00 21,0 18,0 11 6 ESE 1013,0 30
15.08.2018 01:00:00 - - - - - - -
15.08.2018 00:00:00 - - - - - - -
14.08.2018 23:00:00 21,5 17,7 4 2 W 1013,4 30
14.08.2018 22:00:00 - - - - - - -
14.08.2018 21:00:00 - - - - - - -
14.08.2018 20:00:00 29,4 18,6 7 4 SE 1009,7 40
14.08.2018 19:00:00 - - - - - - -
14.08.2018 18:00:00 - - - - - - -
14.08.2018 17:00:00 33,3 17,7 7 4 SE 1009,1 30
14.08.2018 16:00:00 - - - - - - -
14.08.2018 15:00:00 - - - - - - -
14.08.2018 14:00:00 32,8 18,3 7 4 E 1010,0 30
14.08.2018 13:00:00 - - - - - - -
14.08.2018 12:00:00 - - - - - - -
14.08.2018 11:00:00 29,3 18,0 7 4 SE 1011,7 30
14.08.2018 10:00:00 - - - - - - -
14.08.2018 09:00:00 - - - - - - -
14.08.2018 08:00:00 22,0 17,6 7 4 SSE 1012,0 30
14.08.2018 07:00:00 - - - - - - -
14.08.2018 06:00:00 - - - - - - -
14.08.2018 05:00:00 24,1 14,9 11 6 SE 1010,9 30
14.08.2018 04:00:00 - - - - - - -
14.08.2018 03:00:00 - - - - - - -
14.08.2018 02:00:00 24,5 14,5 7 4 SSE 1011,6 30
14.08.2018 01:00:00 - - - - - - -
14.08.2018 00:00:00 - - - - - - -
13.08.2018 23:00:00 26,0 15,4 7 4 SE 1011,6 30
13.08.2018 22:00:00 - - - - - - -
13.08.2018 21:00:00 - - - - - - -
13.08.2018 20:00:00 29,2 15,1 11 6 SSE 1010,8 30
13.08.2018 19:00:00 - - - - - - -
13.08.2018 18:00:00 - - - - - - -
13.08.2018 17:00:00 32,5 15,5 7 4 SE 1011,1 40
13.08.2018 16:00:00 - - - - - - -
13.08.2018 15:00:00 - - - - - - -
13.08.2018 14:00:00 32,2 14,9 11 6 SE 1012,7 40
13.08.2018 13:00:00 - - - - - - -
13.08.2018 12:00:00 - - - - - - -
13.08.2018 11:00:00 29,4 14,3 14 8 SSE 1013,8 40
13.08.2018 10:00:00 - - - - - - -
13.08.2018 09:00:00 - - - - - - -
13.08.2018 08:00:00 23,8 15,6 7 4 SE 1014,4 30
13.08.2018 07:00:00 - - - - - - -
13.08.2018 06:00:00 - - - - - - -
13.08.2018 05:00:00 22,7 15,0 7 4 SE 1014,6 30
13.08.2018 04:00:00 - - - - - - -
13.08.2018 03:00:00 - - - - - - -
13.08.2018 02:00:00 22,3 15,6 4 2 SE 1015,0 30
13.08.2018 01:00:00 - - - - - - -
13.08.2018 00:00:00 - - - - - - -
12.08.2018 23:00:00 24,6 15,4 4 2 SE 1015,7 20
12.08.2018 22:00:00 - - - - - - -
12.08.2018 21:00:00 - - - - - - -
12.08.2018 20:00:00 27,8 15,6 4 2 S 1015,7 20
12.08.2018 19:00:00 - - - - - - -
12.08.2018 18:00:00 - - - - - - -
12.08.2018 17:00:00 31,8 13,5 4 2 SSE 1016,4 20
12.08.2018 16:00:00 - - - - - - -
12.08.2018 15:00:00 - - - - - - -
12.08.2018 14:00:00 31,0 14,3 11 6 NNE 1018,2 20
12.08.2018 13:00:00 - - - - - - -
12.08.2018 12:00:00 - - - - - - -
12.08.2018 11:00:00 27,9 19,9 4 2 W 1019,4 20
12.08.2018 10:00:00 - - - - - - -
12.08.2018 09:00:00 - - - - - - -
12.08.2018 08:00:00 21,6 18,3 4 2 WSW 1019,6 20
12.08.2018 07:00:00 - - - - - - -
12.08.2018 06:00:00 - - - - - - -
12.08.2018 05:00:00 20,3 14,4 4 2 S 1019,1 30
12.08.2018 04:00:00 - - - - - - -
12.08.2018 03:00:00 - - - - - - -
12.08.2018 02:00:00 22,6 14,8 7 4 SE 1018,7 30
12.08.2018 01:00:00 - - - - - - -
12.08.2018 00:00:00 - - - - - - -
11.08.2018 23:00:00 24,8 14,7 7 4 SE 1018,8 30
11.08.2018 22:00:00 - - - - - - -
11.08.2018 21:00:00 - - - - - - -
11.08.2018 20:00:00 26,8 14,1 11 6 ESE 1017,9 30
11.08.2018 19:00:00 - - - - - - -
11.08.2018 18:00:00 - - - - - - -
11.08.2018 17:00:00 29,8 16,8 11 6 ESE 1017,4 30
11.08.2018 16:00:00 - - - - - - -
11.08.2018 15:00:00 - - - - - - -
11.08.2018 14:00:00 29,2 15,6 11 6 SSE 1018,1 30
11.08.2018 13:00:00 - - - - - - -
11.08.2018 12:00:00 - - - - - - -
11.08.2018 11:00:00 28,0 16,3 11 6 ESE 1019,0 30
11.08.2018 10:00:00 - - - - - - -
11.08.2018 09:00:00 - - - - - - -
11.08.2018 08:00:00 23,8 14,4 14 8 SE 1019,2 30
11.08.2018 07:00:00 - - - - - - -
11.08.2018 06:00:00 - - - - - - -
11.08.2018 05:00:00 21,8 12,3 11 6 SE 1018,9 30
11.08.2018 04:00:00 - - - - - - -
11.08.2018 03:00:00 - - - - - - -
11.08.2018 02:00:00 22,5 12,0 11 6 SE 1019,7 30
11.08.2018 01:00:00 - - - - - - -

tt = temperature
td = dewpoint
ff = wind speed
dd = wind direction
ppp = reduced air pressure
vv = visibility

Next stations